Clintonville, WI

10:24 PM CST on December 08, 2019 (GMT -0600)
Clintonville Municipal

Weather History for KCLI - November, 2019

Change the Weather History Date:

Tuesday, November 19, 2019

  Actual Average Record
Temperature  
Mean Temperature 32 °F -  
Max Temperature 34 °F 41 °F 66 °F (1953)
Min Temperature 31 °F 24 °F 4 °F (1986)
Degree Days  
Heating Degree Days 32    
Moisture  
Dew Point 28 °F    
Average Humidity 82    
Maximum Humidity 86    
Minimum Humidity 74    
Precipitation  
Precipitation 0.00 in - - ()
Sea Level Pressure  
Sea Level Pressure 29.83 in    
Wind  
Wind Speed 1 mph ()    
Max Wind Speed 6 mph    
Max Gust Speed -    
Visibility 9.1 miles    
Events      
Averages and records for this station are not official NWS values.
T = Trace of Precipitation, MM = Missing Value Source: Averaged Metar Reports

Daily Weather History Graph

Daily Weather History Graph

Search for Another Location

Airport or City:

Astronomy

Nov. 19, 2019 Rise Set
Actual Time 6:56 AM CST 4:23 PM CST
Civil Twilight 6:24 AM CST 4:55 PM CST
Nautical Twilight 5:49 AM CST 5:31 PM CST
Astronomical Twilight 5:14 AM CST 6:05 PM CST
Moon 11:21 PM CST (11/19) 1:05 PM CST (11/19)
Length of Visible Light 10h 30m
Length of Day
9h 27m
Waning Gibbous, 51% of the Moon is Illuminated
Nov 19
Waning Gibbous
Nov 19
Last Quarter
Nov 26
New
Dec 4
First Quarter
Dec 11
Full

Hourly Weather History & Observations

Time (CST) Temp. Windchill Dew Point Humidity Pressure Visibility Wind Dir Wind Speed Gust Speed Precip Events Conditions
12:15 AM 32.0 °F - 27.9 °F 85% 29.73 in 10.0 mi Calm Calm - N/A   Overcast
12:35 AM 32.0 °F - 27.5 °F 83% 29.73 in 10.0 mi Calm Calm - N/A   Overcast
12:55 AM 32.0 °F - 27.5 °F 83% 29.73 in 10.0 mi Calm Calm - N/A   Overcast
1:35 AM 31.8 °F - 27.5 °F 84% 29.73 in 10.0 mi Calm Calm - N/A   Overcast
1:55 AM 31.8 °F - 27.5 °F 84% 29.73 in 10.0 mi Calm Calm - N/A   Overcast
2:15 AM 31.8 °F - 27.5 °F 84% 29.73 in 10.0 mi Calm Calm - N/A   Overcast
2:35 AM 31.6 °F - 27.5 °F 85% 29.73 in 10.0 mi Calm Calm - N/A   Overcast
2:55 AM 31.6 °F 27.0 °F 27.5 °F 85% 29.72 in 10.0 mi West 4.6 mph - N/A   Overcast
3:15 AM 31.6 °F - 27.5 °F 85% 29.72 in 10.0 mi Calm Calm - N/A   Overcast
3:35 AM 31.6 °F 28.3 °F 27.5 °F 85% 29.72 in 7.0 mi West 3.5 mph - N/A   Overcast
3:55 AM 31.6 °F 28.3 °F 27.5 °F 85% 29.73 in 7.0 mi West 3.5 mph - N/A   Overcast
4:15 AM 31.6 °F - 27.5 °F 85% 29.73 in 7.0 mi Calm Calm - N/A   Overcast
4:35 AM 31.5 °F 26.8 °F 27.5 °F 85% 29.74 in 7.0 mi West 4.6 mph - N/A   Overcast
4:55 AM 31.5 °F - 27.5 °F 85% 29.74 in 7.0 mi Calm Calm - N/A   Overcast
5:15 AM 31.5 °F - 27.5 °F 85% 29.74 in 7.0 mi Calm Calm - N/A   Overcast
5:35 AM 31.5 °F - 27.5 °F 85% 29.74 in 7.0 mi Calm Calm - N/A   Overcast
5:55 AM 31.3 °F - 27.5 °F 86% 29.74 in 7.0 mi Calm Calm - N/A   Overcast
6:15 AM 31.5 °F - 27.5 °F 85% 29.75 in 7.0 mi Calm Calm - N/A   Overcast
6:35 AM 31.5 °F - 27.5 °F 85% 29.76 in 7.0 mi Calm Calm - N/A   Overcast
6:55 AM 31.3 °F - 27.3 °F 85% 29.76 in 7.0 mi Calm Calm - N/A   Overcast
7:35 AM 31.5 °F - 27.5 °F 85% 29.77 in 7.0 mi Calm Calm - N/A   Overcast
7:55 AM 31.6 °F - 27.5 °F 85% 29.77 in 7.0 mi Calm Calm - N/A   Overcast
8:15 AM 31.8 °F - 27.5 °F 84% 29.78 in 7.0 mi Calm Calm - N/A   Overcast
8:35 AM 32.0 °F - 27.3 °F 83% 29.78 in 10.0 mi Calm Calm - N/A   Overcast
8:55 AM 32.0 °F 27.5 °F 27.5 °F 83% 29.78 in 10.0 mi SW 4.6 mph - N/A   Overcast
9:15 AM 32.4 °F 27.9 °F 27.7 °F 83% 29.79 in 10.0 mi SSW 4.6 mph - N/A   Overcast
9:35 AM 32.4 °F 26.9 °F 27.3 °F 82% 29.79 in 10.0 mi SSW 5.8 mph - N/A   Overcast
9:55 AM 32.9 °F 27.5 °F 27.5 °F 81% 29.80 in 10.0 mi SW 5.8 mph - N/A   Overcast
10:15 AM 32.9 °F 27.5 °F 27.3 °F 80% 29.81 in 10.0 mi SW 5.8 mph - N/A   Overcast
10:35 AM 32.9 °F 27.5 °F 27.5 °F 81% 29.81 in 10.0 mi WSW 5.8 mph - N/A   Overcast
10:55 AM 32.7 °F 27.3 °F 27.1 °F 80% 29.81 in 10.0 mi WSW 5.8 mph - N/A   Overcast
11:15 AM 32.9 °F 28.5 °F 27.3 °F 80% 29.81 in 10.0 mi WSW 4.6 mph - N/A   Overcast
11:35 AM 33.1 °F - 27.0 °F 78% 29.81 in 10.0 mi Calm Calm - N/A   Overcast
11:55 AM 33.3 °F - 26.8 °F 77% 29.81 in 10.0 mi Calm Calm - N/A   Overcast
12:15 PM 33.3 °F 30.2 °F 26.8 °F 77% 29.81 in 10.0 mi NW 3.5 mph - N/A   Overcast
12:35 PM 34.2 °F - 27.1 °F 75% 29.81 in 10.0 mi Calm Calm - N/A   Overcast
12:55 PM 34.2 °F 31.2 °F 27.1 °F 75% 29.81 in 10.0 mi SW 3.5 mph - N/A   Overcast
1:15 PM 33.8 °F - 26.8 °F 75% 29.82 in 10.0 mi Calm Calm - N/A   Overcast
1:35 PM 34.2 °F 30.0 °F 27.1 °F 75% 29.82 in 10.0 mi West 4.6 mph - N/A   Overcast
1:55 PM 34.3 °F 31.4 °F 26.8 °F 74% 29.82 in 10.0 mi WSW 3.5 mph - N/A   Overcast
2:15 PM 34.2 °F 31.2 °F 27.1 °F 75% 29.84 in 10.0 mi WSW 3.5 mph - N/A   Overcast
2:35 PM 34.3 °F 31.4 °F 27.3 °F 76% 29.84 in 10.0 mi SW 3.5 mph - N/A   Overcast
2:55 PM 34.7 °F 31.8 °F 27.5 °F 75% 29.85 in 10.0 mi WNW 3.5 mph - N/A   Overcast
3:15 PM 34.3 °F 31.4 °F 27.5 °F 76% 29.86 in 10.0 mi West 3.5 mph - N/A   Overcast
3:35 PM 34.2 °F 31.2 °F 27.5 °F 77% 29.87 in 10.0 mi WSW 3.5 mph - N/A   Overcast
3:55 PM 33.8 °F 30.8 °F 27.5 °F 78% 29.88 in 10.0 mi SW 3.5 mph - N/A   Overcast
4:15 PM 34.2 °F 31.2 °F 28.0 °F 78% 29.88 in 10.0 mi SW 3.5 mph - N/A   Overcast
4:35 PM 33.8 °F 30.8 °F 28.2 °F 80% 29.89 in 10.0 mi SW 3.5 mph - N/A   Overcast
4:55 PM 33.8 °F 30.8 °F 28.4 °F 81% 29.89 in 10.0 mi SW 3.5 mph - N/A   Overcast
5:15 PM 33.8 °F - 28.4 °F 81% 29.89 in 10.0 mi Calm Calm - N/A   Overcast
5:35 PM 33.8 °F - 28.4 °F 81% 29.89 in 10.0 mi Calm Calm - N/A   Overcast
5:55 PM 33.8 °F - 28.4 °F 81% 29.90 in 10.0 mi Calm Calm - N/A   Overcast
6:15 PM 33.6 °F 30.6 °F 28.4 °F 81% 29.90 in 10.0 mi SSW 3.5 mph - N/A   Overcast
6:35 PM 33.8 °F 30.8 °F 28.4 °F 81% 29.91 in 10.0 mi SSW 3.5 mph - N/A   Overcast
6:55 PM 33.8 °F 30.8 °F 28.4 °F 81% 29.91 in 10.0 mi SSW 3.5 mph - N/A   Overcast
7:15 PM 33.8 °F 29.6 °F 28.4 °F 81% 29.91 in 10.0 mi SSW 4.6 mph - N/A   Overcast
7:35 PM 33.8 °F 30.8 °F 28.8 °F 82% 29.92 in 10.0 mi SSW 3.5 mph - N/A   Overcast
7:55 PM 33.4 °F 30.4 °F 28.8 °F 83% 29.92 in 10.0 mi SSW 3.5 mph - N/A   Overcast
8:15 PM 33.4 °F 30.4 °F 28.9 °F 84% 29.93 in 10.0 mi SW 3.5 mph - N/A   Overcast
8:35 PM 33.8 °F 30.8 °F 28.9 °F 82% 29.94 in 10.0 mi SW 3.5 mph - N/A   Overcast
8:55 PM 33.8 °F - 29.1 °F 83% 29.94 in 10.0 mi Calm Calm - N/A   Overcast
9:15 PM 33.8 °F - 29.1 °F 83% 29.94 in 7.0 mi Calm Calm - N/A   Overcast
9:35 PM 33.3 °F - 28.9 °F 84% 29.95 in 7.0 mi Calm Calm - N/A   Overcast
9:55 PM 33.3 °F - 29.1 °F 85% 29.95 in 7.0 mi Calm Calm - N/A   Overcast
10:15 PM 33.8 °F - 29.3 °F 84% 29.95 in 7.0 mi Calm Calm - N/A   Overcast
10:55 PM 33.8 °F - 29.3 °F 84% 29.97 in 7.0 mi Calm Calm - N/A   Overcast
11:15 PM 33.8 °F - 29.5 °F 84% 29.98 in 7.0 mi Calm Calm - N/A   Overcast
11:55 PM 33.4 °F 30.4 °F 29.7 °F 86% 30.00 in 7.0 mi SW 3.5 mph - N/A   Overcast